When you browse on this site, cookies collect data to enhance your experience and personalize the content and advertising you see.
Visit our Privacy Policy to learn more. By continuing to use the site, you agree to this use of cookies and data.
  • In Lithuania
  • List of Countries
  • For 7 days
  • Water Temperature
  • Satellite Maps
  • Weather Map
  • Weather Widgets
  • user-avatar
    Login

    Hourly Weather Da Nang

    Today, 17 January, Thursday

    Time Temperature Precipitation Wind Pressure Humidity
    00:00 +23°C° 3.2 mm 4 mps 761 mmHg 97%
    01:00 +24°C° 0 mm 3 mps 761 mmHg 98%
    02:00 +23°C° 3.4 mm 4 mps 761 mmHg 98%
    03:00 +23°C° 3.4 mm 4 mps 761 mmHg 98%
    04:00 +23°C° 3.4 mm 4 mps 761 mmHg 97%
    05:00 +23°C° 3.6 mm 4 mps 761 mmHg 97%
    06:00 +23°C° 3.6 mm 4 mps 761 mmHg 97%
    07:00 +22°C° 0 mm 3 mps 761 mmHg 96%
    08:00 +22°C° 1.8 mm 3 mps 762 mmHg 96%
    09:00 +22°C° 1.8 mm 3 mps 762 mmHg 97%
    10:00 +22°C° 1.8 mm 3 mps 762 mmHg 98%
    11:00 +22°C° 2.5 mm 3 mps 762 mmHg 98%
    12:00 +22°C° 2.5 mm 3 mps 762 mmHg 98%
    13:00 +22°C° 0 mm 4 mps 762 mmHg 98%
    14:00 +22°C° 3.2 mm 4 mps 761 mmHg 98%
    15:00 +22°C° 3.2 mm 4 mps 761 mmHg 98%
    16:00 +22°C° 3.2 mm 4 mps 761 mmHg 98%
    17:00 +22°C° 2 mm 4 mps 761 mmHg 98%
    18:00 +22°C° 2 mm 4 mps 761 mmHg 97%
    19:00 +22°C° 2 mm 4 mps 762 mmHg 97%
    20:00 +22°C° 1.6 mm 4 mps 762 mmHg 97%
    21:00 +22°C° 1.6 mm 4 mps 762 mmHg 97%
    22:00 +22°C° 1.6 mm 4 mps 762 mmHg 97%
    23:00 +22°C° 1.4 mm 4 mps 762 mmHg 97%

    Tomorrow, 18 January, Friday

    Time Temperature Precipitation Wind Pressure Humidity
    00:00 +22°C° 1.4 mm 4 mps 762 mmHg 97%
    01:00 +22°C° 1.4 mm 4 mps 762 mmHg 97%
    02:00 +22°C° 1.4 mm 4 mps 762 mmHg 97%
    03:00 +22°C° 1.4 mm 4 mps 761 mmHg 97%
    04:00 +22°C° 1.4 mm 4 mps 761 mmHg 97%
    05:00 +22°C° 1.4 mm 4 mps 761 mmHg 97%
    06:00 +22°C° 1.4 mm 4 mps 761 mmHg 97%
    07:00 +22°C° 1.4 mm 4 mps 762 mmHg 96%
    08:00 +22°C° 1.4 mm 4 mps 762 mmHg 96%
    09:00 +22°C° 1.4 mm 4 mps 762 mmHg 96%
    10:00 +22°C° 1.4 mm 4 mps 762 mmHg 96%
    11:00 +22°C° 1.5 mm 3 mps 762 mmHg 96%
    12:00 +22°C° 1.5 mm 3 mps 762 mmHg 96%
    13:00 +22°C° 1.5 mm 3 mps 761 mmHg 96%
    14:00 +22°C° 1.5 mm 3 mps 761 mmHg 96%
    15:00 +22°C° 1.5 mm 3 mps 761 mmHg 96%
    16:00 +22°C° 1.5 mm 3 mps 760 mmHg 96%
    17:00 +23°C° 1.2 mm 2 mps 761 mmHg 96%
    18:00 +23°C° 1.2 mm 2 mps 761 mmHg 96%
    19:00 +23°C° 1.2 mm 2 mps 761 mmHg 96%
    20:00 +23°C° 0.7 mm 2 mps 761 mmHg 97%
    21:00 +23°C° 0.7 mm 2 mps 761 mmHg 97%
    22:00 +23°C° 0.7 mm 2 mps 762 mmHg 97%
    23:00 +23°C° 0.5 mm 2 mps 761 mmHg 97%

    Day after tomorrow, 19 January, Saturday

    Time Temperature Precipitation Wind Pressure Humidity
    00:00 +23°C° 0.5 mm 2 mps 761 mmHg 97%
    01:00 +23°C° 0.5 mm 1 mps 761 mmHg 97%
    02:00 +23°C° 0.5 mm 1 mps 761 mmHg 97%
    03:00 +23°C° 0.5 mm 1 mps 760 mmHg 97%
    04:00 +23°C° 0.5 mm 1 mps 760 mmHg 97%
    05:00 +23°C° 0.3 mm 1 mps 760 mmHg 97%
    06:00 +23°C° 0.3 mm 1 mps 760 mmHg 97%
    07:00 +23°C° 0.3 mm 1 mps 760 mmHg 97%
    08:00 +24°C° 0.2 mm 1 mps 761 mmHg 94%
    09:00 +25°C° 0.2 mm 1 mps 761 mmHg 92%
    10:00 +26°C° 0.2 mm 1 mps 761 mmHg 89%
    11:00 +27°C° 0.3 mm 1 mps 761 mmHg 87%
    12:00 +28°C° 0.3 mm 1 mps 760 mmHg 84%
    13:00 +28°C° 0.3 mm 1 mps 759 mmHg 82%
    14:00 +28°C° 0.4 mm 2 mps 759 mmHg 85%
    15:00 +27°C° 0.4 mm 2 mps 758 mmHg 89%
    16:00 +26°C° 0.4 mm 2 mps 758 mmHg 92%
    17:00 +26°C° 0.2 mm 2 mps 758 mmHg 93%
    18:00 +25°C° 0.2 mm 2 mps 759 mmHg 95%
    19:00 +24°C° 0.2 mm 2 mps 759 mmHg 97%
    20:00 +24°C° 0.1 mm 1 mps 760 mmHg 97%
    21:00 +24°C° 0.1 mm 1 mps 760 mmHg 97%
    22:00 +24°C° 0.1 mm 1 mps 760 mmHg 97%
    23:00 +24°C° 0.1 mm 1 mps 760 mmHg 97%

    20 January, Sunday

    Time Temperature Precipitation Wind Pressure Humidity
    00:00 +23°C° 0.1 mm 1 mps 760 mmHg 97%
    01:00 +23°C° 0.1 mm 1 mps 760 mmHg 98%
    02:00 +23°C° 0.1 mm 1 mps 759 mmHg 97%
    03:00 +23°C° 0.1 mm 1 mps 759 mmHg 97%
    04:00 +23°C° 0.1 mm 1 mps 759 mmHg 97%
    05:00 +23°C° 0.1 mm 1 mps 759 mmHg 97%
    06:00 +23°C° 0.1 mm 1 mps 760 mmHg 97%
    07:00 +23°C° 0.1 mm 1 mps 760 mmHg 96%
    08:00 +24°C° 0 mm 1 mps 760 mmHg 94%
    09:00 +25°C° 0 mm 1 mps 761 mmHg 91%
    10:00 +26°C° 0 mm 2 mps 761 mmHg 89%
    11:00 +28°C° 0 mm 1 mps 760 mmHg 82%
    12:00 +29°C° 0 mm 1 mps 759 mmHg 76%
    13:00 +31°C° 0 mm 1 mps 759 mmHg 69%
    14:00 +30°C° 0.2 mm 2 mps 758 mmHg 74%
    15:00 +29°C° 0.2 mm 2 mps 758 mmHg 79%
    16:00 +28°C° 0.2 mm 2 mps 758 mmHg 84%
    17:00 +27°C° 0.1 mm 2 mps 758 mmHg 88%
    18:00 +26°C° 0.1 mm 1 mps 759 mmHg 91%
    19:00 +25°C° 0.1 mm 1 mps 759 mmHg 95%
    20:00 +24°C° 0 mm 1 mps 760 mmHg 96%
    21:00 +24°C° 0 mm 1 mps 760 mmHg 96%
    22:00 +24°C° 0 mm 1 mps 760 mmHg 97%
    23:00 +24°C° 0.1 mm 1 mps 760 mmHg 97%

    21 January, Monday

    Time Temperature Precipitation Wind Pressure Humidity
    00:00 +24°C° 0.1 mm 1 mps 760 mmHg 97%
    01:00 +24°C° 0.1 mm 1 mps 760 mmHg 97%
    02:00 +24°C° 0.2 mm 1 mps 759 mmHg 97%
    03:00 +23°C° 0.2 mm 1 mps 759 mmHg 97%
    04:00 +23°C° 0.2 mm 1 mps 759 mmHg 97%
    05:00 +23°C° 0.9 mm 1 mps 760 mmHg 97%
    06:00 +23°C° 0.9 mm 1 mps 760 mmHg 97%
    07:00 +23°C° 0.9 mm 1 mps 761 mmHg 97%
    08:00 +24°C° 1.1 mm 1 mps 761 mmHg 97%
    09:00 +24°C° 1.1 mm 1 mps 761 mmHg 97%
    10:00 +24°C° 1.1 mm 1 mps 762 mmHg 97%
    11:00 +24°C° 0.8 mm 1 mps 761 mmHg 96%
    12:00 +24°C° 0.8 mm 1 mps 760 mmHg 96%
    13:00 +25°C° 0.8 mm 1 mps 759 mmHg 96%
    14:00 +25°C° 0.6 mm 1 mps 759 mmHg 96%
    15:00 +25°C° 0.6 mm 1 mps 759 mmHg 96%
    16:00 +25°C° 0.6 mm 1 mps 759 mmHg 95%
    17:00 +25°C° 1 mm 2 mps 759 mmHg 96%
    18:00 +24°C° 1 mm 3 mps 760 mmHg 96%
    19:00 +24°C° 1 mm 3 mps 760 mmHg 96%
    20:00 +23°C° 1.8 mm 4 mps 761 mmHg 96%
    21:00 +23°C° 1.8 mm 4 mps 761 mmHg 97%
    22:00 +23°C° 1.8 mm 5 mps 761 mmHg 97%
    23:00 +23°C° 1.8 mm 5 mps 761 mmHg 97%

    22 January, Tuesday

    Time Temperature Precipitation Wind Pressure Humidity
    00:00 +23°C° 1.8 mm 5 mps 761 mmHg 97%
    01:00 +23°C° 1.8 mm 5 mps 760 mmHg 96%
    02:00 +23°C° 1.5 mm 5 mps 760 mmHg 96%
    03:00 +23°C° 1.5 mm 5 mps 760 mmHg 96%
    04:00 +23°C° 1.5 mm 4 mps 760 mmHg 96%
    05:00 +23°C° 2 mm 4 mps 760 mmHg 96%
    06:00 +23°C° 2 mm 4 mps 761 mmHg 96%
    07:00 +22°C° 2 mm 4 mps 761 mmHg 96%
    08:00 +22°C° 1.6 mm 4 mps 762 mmHg 96%
    09:00 +22°C° 1.6 mm 4 mps 762 mmHg 96%
    10:00 +22°C° 1.6 mm 4 mps 763 mmHg 96%
    11:00 +22°C° 1.3 mm 4 mps 762 mmHg 96%
    12:00 +22°C° 1.3 mm 4 mps 762 mmHg 96%
    13:00 +22°C° 1.3 mm 4 mps 761 mmHg 96%
    14:00 +22°C° 1.3 mm 4 mps 761 mmHg 96%
    15:00 +22°C° 1.3 mm 4 mps 761 mmHg 96%
    16:00 +22°C° 1.3 mm 4 mps 760 mmHg 96%
    17:00 +22°C° 0.9 mm 4 mps 761 mmHg 96%
    18:00 +22°C° 0.9 mm 3 mps 761 mmHg 96%
    19:00 +22°C° 0.9 mm 3 mps 761 mmHg 96%
    20:00 +22°C° 1.1 mm 3 mps 762 mmHg 96%
    21:00 +21°C° 1.1 mm 3 mps 762 mmHg 96%
    22:00 +21°C° 1.1 mm 3 mps 762 mmHg 96%
    23:00 +21°C° 0.7 mm 3 mps 762 mmHg 96%
    Show more